Tracking 28125 objects as of 4-Oct-2023
HD Live streaming from Space Station
objects crossing your sky now

STARLINK-1544

Track STARLINK-1544 now!
10-day predictions
STARLINK-1544 is classified as:


NORAD ID: 46031
Int'l Code: 2020-055E
Perigee: 553.2 km
Apogee: 555.3 km
Inclination: 53.1 °
Period: 95.6 minutes
Semi major axis: 6925 km
RCS: Unknown
Launch date: August 7, 2020
Source: United States (US)
Launch site: AIR FORCE EASTERN TEST RANGE (AFETR)
Your satellite tracking list
Your tracking list is empty




NASA's NSSDC Master Catalog

Two Line Element Set (TLE):
1 46031U 20055E   23276.93632258  .00014347  00000-0  97952-3 0  9998
2 46031  53.0536 151.8887 0001517  91.6338 268.4825 15.06421745174574
Source of the keplerian elements: AFSPC